Presure
160 183 201 171 174 175 170 151 164 170 178 181 193 221 248 258 283 327 308 327 300 307 315 323 336 355 349 383 388 397 395 410 413 231 227 217 217 223 208 202 152 207 208 143 128 139 147
146 151 198 165 162 193 158 175 163 170 189 184 191 206 236 255 280 335 311 303 299 274 295 293 296 314 373 361 364 342 162 152 224 157 191 216 224 223 199 192 201 206 210 181 148 137 136
199 189 186 165 200 169 165 159 176 178 190 181 196 186 220 250 274 334 323 181 284 285 283 282 307 298 316 375 119 333 329 194 390 269 231 153 182 223 200 203 186 198 202 211 155 207 195
161 202 196 195 196 176 182 172 166 164 176 175 185 202 172 250 257 329 345 153 299 290 293 267 302 289 329 312 311 325 324 319 352 283 251 199 144 157 216 206 189 189 195 192 200 216 142
221 218 204 200 199 153 165 167 161 151 191 186 175 196 204 221 260 247 370 233 306 291 279 267 280 300 301 315 311 215 325 131 188 343 242 191 207 170 210 194 202 194 166 185 186 194 193
235 154 222 222 222 211 191 156 164 166 190 182 182 189 207 215 240 253 268 172 144 358 293 272 281 264 304 294 324 302 312 302 135 318 121 224 205 214 223 208 202 200 193 171 195 197 190
265 263 139 149 252 210 202 189 189 177 180 180 179 202 199 202 217 252 245 294 159 148 290 286 273 268 273 300 315 314 303 323 294 346 148 171 218 159 223 227 216 186 200 203 201 206 196
211 259 279 267 169 159 197 174 177 167 188 189 185 186 194 196 205 233 259 250 300 244 138 312 295 282 266 284 287 325 304 326 158 109 341 136 146 223 219 212 211 203 210 200 204 204 209
164 151 241 283 204 242 168 186 177 167 172 188 188 170 183 205 144 204 245 217 171 316 310 323 328 295 292 277 288 317 314 320 342 136 105 149 142 186 211 188 192 227 221 214 214 213 208
180 175 174 185 176 184 215 174 162 180 176 153 169 181 173 186 207 200 205 249 229 218 281 317 305 296 304 283 288 275 283 323 280 322 121 258 162 129 199 206 201 208 194 193 197 187 192
173 202 163 177 160 154 213 157 175 187 170 175 185 191 167 182 186 167 205 210 241 244 186 247 304 302 308 314 300 272 266 290 218 138 323 389 252 201 200 140 204 202 197 211 199 198 195
188 159 170 188 180 167 174 161 193 186 173 161 166 173 192 154 180 195 195 204 207 238 244 253 261 301 302 302 299 301 239 281 124 112 255 278 376 256 188 211 208 186 201 196 198 195 192
106 196 172 184 173 225 181 169 171 152 183 190 165 168 177 141 154 179 183 190 193 196 239 247 232 244 300 298 299 249 315 253 277 122 127 148 147 126 155 231 201 206 190 182 184 186 194
198 168 191 194 188 207 210 184 180 178 145 165 162 161 171 163 152 151 193 178 191 188 196 213 258 239 229 248 297 298 283 140 170 131 323 311 146 147 249 148 230 205 216 202 195 197 191
188 172 145 145 192 175 198 221 169 166 176 145 183 166 145 170 169 141 160 185 189 186 192 196 214 233 262 246 246 244 293 295 308 323 326 322 328 136 327 139 238 222 217 217 211 189 184
185 180 166 124 203 183 179 205 181 186 182 187 182 176 176 143 152 153 177 162 180 193 186 190 193 197 222 236 256 243 252 255 291 291 302 318 215 177 138 140 142 248 228 215 210 195 201
180 196 156 114 175 171 185 181 212 173 176 178 175 179 185 166 171 163 158 163 187 178 188 181 186 181 189 206 234 231 249 239 158 259 228 296 292 305 215 258 246 230 157 226 222 154 202
150 186 159 163 100 179 191 188 174 151 170 177 181 184 191 183 188 185 185 160 180 191 151 165 193 193 189 181 189 204 231 230 234 240 177 168 282 191 199 281 165 268 166 219 172 177 176
176 164 176 179 203 180 166 191 150 170 166 169 140 187 160 140 163 181 184 177 149 140 162 171 163 177 175 178 162 192 193 198 216 220 228 254 244 224 233 186 239 271 218 242 275 150 190
183 185 193 181 164 169 175 173 191 171 175 172 174 175 187 180 178 183 181 138 170 151 150 155 150 185 152 183 178 191 175 193 188 183 210 219 214 208 219 227 244 248 244 248 254 229 210
179 186 180 191 166 158 144 147 184 183 175 170 193 165 151 183 164 182 177 182 177 177 177 177 143 178 145 173 190 186 155 191 197 173 166 195 184 194 197 217 212 209 207 214 212 213 208
178 191 191 185 184 179 190 148 142 165 179 187 177 177 194 178 149 178 175 172 182 165 167 180 143 170 158 142 151 191 201 184 174 173 175 175 176 170 200 185 182 178 180 162 203 200 211
195 187 195 187 177 175 193 177 201 163 171 167 173 174 170 188 191 185 179 177 146 185 160 177 172 182 156 152 149 159 137 159 176 154 171 166 178 177 185 174 167 176 170 180 207 164 188
176 192 192 174 178 173 192 200 146 194 201 182 162 188 175 161 162 158 159 175 143 162 164 169 178 176 157 162 174 193 172 191 184 176 151 146 183 176 171 167 177 174 184 175 177 185 175
186 187 176 187 179 192 189 167 189 200 200 184 192 187 184 181 181 179 180 181 179 178 183 161 186 178 163 185 179 177 177 163 190 169 175 156 195 130 148 192 199 169 185 189 152 183 176
180 171 175 176 173 198 190 187 190 166 189 194 183 164 185 197 158 181 179 137 176 138 179 176 182 189 184 179 179 186 163 187 166 188 153 186 180 156 196 168 189 135 157 185 162 171 173
175 174 175 181 175 188 189 180 179 184 183 179 190 193 195 183 181 189 197 186 170 169 179 168 156 179 148 158 151 173 173 171 173 170 174 174 166 175 159 162 155 162 172 194 176 181 189
181 196 193 191 183 192 193 172 188 195 165 186 183 193 169 163 191 183 179 167 194 182 195 190 152 177 137 185 174 180 164 150 183 177 174 185 180 160 170 180 155 163 187 171 177 203 185
184 181 186 192 181 194 177 201 191 154 190 191 186 170 182 187 184 190 159 187 190 162 161 187 158 160 152 179 137 173 168 170 164 149 184 186 181 188 188 176 186 194 191 156 147 182 187
Wind_Speed
25 28 32 29 31 34 36 24 43 50 58 63 70 82 94 95 100 63 62 48 60 57 58 48 37 13 3 11 18 27 38 37 51 101 104 100 98 96 91 89 77 83 80 66 68 69 73
19 21 31 28 32 35 36 39 42 50 59 61 68 75 93 95 98 61 53 57 52 43 45 43 40 41 19 24 35 36 46 47 49 49 71 100 100 97 92 82 84 80 79 75 74 68 66
30 27 30 33 31 32 34 38 43 50 55 59 68 67 86 93 96 67 46 34 47 44 44 34 36 32 31 22 22 50 49 37 35 115 96 38 70 95 87 87 73 80 76 73 72 77 69
21 30 30 31 30 34 36 37 43 47 46 56 63 70 50 92 90 78 41 24 32 37 37 44 35 28 27 24 29 43 52 60 46 94 110 85 36 46 91 88 80 78 76 73 69 70 64
39 38 33 33 31 30 34 38 41 31 51 57 56 65 73 84 87 85 47 41 41 34 36 37 37 34 28 28 28 27 46 36 46 53 108 72 84 50 88 79 84 77 51 70 70 69 67
37 21 36 35 34 29 29 38 43 43 46 55 56 60 69 78 90 82 86 31 20 37 22 30 34 32 34 24 23 27 35 39 42 82 21 91 79 87 85 79 80 79 75 55 72 70 69
33 34 23 27 34 25 23 28 32 41 45 51 56 62 64 69 78 84 78 83 24 20 40 18 25 27 27 26 21 23 27 38 52 41 49 60 85 31 85 87 84 67 78 77 74 71 69
26 32 30 29 26 29 23 28 32 44 39 45 51 57 60 65 72 86 83 85 56 42 13 28 12 21 22 23 24 13 21 27 23 26 45 35 45 82 82 80 78 75 79 73 73 69 65
26 25 38 30 26 15 25 25 29 40 43 41 47 48 56 66 28 73 83 62 38 59 50 41 33 21 16 21 26 22 21 25 33 22 20 39 40 63 79 65 69 79 81 78 75 70 65
20 20 25 25 24 24 17 29 35 30 37 37 47 49 47 57 63 66 71 81 68 62 59 45 45 38 20 16 17 24 23 26 21 22 25 89 52 29 70 78 76 76 68 62 68 58 60
26 21 26 27 27 30 18 30 29 27 37 38 38 41 39 51 56 43 68 71 80 72 46 71 51 47 34 24 16 18 18 18 18 28 29 29 85 72 73 37 75 73 65 68 67 64 62
23 21 28 23 27 29 25 31 24 26 31 37 31 42 42 28 52 55 60 66 73 75 68 70 66 51 49 42 29 22 14 22 17 16 17 44 36 83 64 79 76 47 67 64 63 60 57
18 23 22 26 27 28 25 29 28 30 25 27 35 37 39 19 29 45 50 53 59 59 71 67 62 65 49 49 45 20 25 14 18 19 19 29 32 28 35 85 66 73 58 47 46 45 59
24 22 23 22 24 20 25 24 26 24 16 30 31 34 36 37 25 22 48 47 54 51 56 63 68 60 55 63 49 45 35 20 24 29 23 31 36 36 88 33 78 67 72 65 58 61 55
28 26 23 21 23 28 23 24 28 22 25 17 25 21 26 33 36 16 35 43 45 47 50 53 65 63 66 59 59 59 44 41 33 21 15 20 22 15 43 19 83 72 69 68 62 50 41
33 29 27 17 25 23 29 21 28 24 26 23 25 23 26 20 22 27 33 36 37 42 43 45 48 49 57 59 61 53 58 55 39 34 25 16 25 32 27 24 24 78 75 63 58 45 48
34 35 26 22 28 24 28 32 19 28 27 29 31 25 21 26 26 28 27 26 30 32 35 37 39 35 39 51 55 51 56 47 13 46 16 24 10 15 26 41 48 48 39 61 61 41 45
32 40 30 28 14 31 27 26 31 24 21 29 29 28 26 24 27 28 27 30 26 29 13 27 34 35 35 29 36 44 46 43 44 40 13 19 20 19 28 27 32 39 39 43 34 43 45
41 35 39 39 33 32 31 29 26 29 27 31 21 30 24 21 21 25 26 23 21 10 26 26 15 28 26 25 11 33 32 34 38 31 34 37 29 17 22 17 13 22 30 32 31 42 44
45 47 45 41 35 34 37 37 31 29 34 32 33 35 27 34 31 27 25 13 21 20 12 23 11 24 11 18 19 22 13 24 20 17 32 26 21 15 15 18 15 16 14 15 16 19 23
47 49 47 48 41 39 37 31 41 40 38 35 28 30 28 33 27 35 30 28 24 23 18 18 7 22 6 19 11 17 7 11 16 8 3 14 9 13 7 17 10 5 8 14 16 19 21
53 52 51 51 50 47 47 37 35 36 40 39 40 29 33 39 29 35 33 30 33 19 21 28 20 23 22 12 21 11 22 5 11 11 8 7 9 9 7 4 8 11 14 19 17 23 20
52 54 54 55 51 49 52 48 44 43 45 39 40 39 37 37 37 36 39 37 24 34 27 31 31 33 27 21 23 15 16 22 6 17 13 14 7 7 10 12 17 17 20 23 16 30 28
62 52 54 56 56 54 55 47 41 51 43 50 39 43 43 35 33 28 28 31 26 28 28 33 35 31 25 29 24 35 31 27 25 13 22 20 20 19 23 23 21 20 19 27 28 28 36
60 59 62 56 58 56 57 52 57 47 48 56 52 51 48 51 49 49 50 49 48 46 40 31 39 43 27 37 39 36 26 35 30 26 20 24 34 33 28 29 43 31 25 28 38 32 40
70 69 69 67 63 58 62 62 59 56 60 55 61 47 55 50 42 57 55 41 50 38 50 47 48 43 46 45 42 41 35 46 30 42 39 38 38 33 47 38 41 36 36 38 40 48 48
75 72 74 72 70 66 65 67 68 66 65 63 63 60 58 61 59 55 56 58 54 49 54 47 43 52 33 29 32 45 43 38 39 32 39 40 46 43 38 47 48 42 48 53 41 52 52
81 75 78 77 76 72 71 64 72 71 59 71 69 67 59 56 63 64 63 58 64 66 63 65 35 55 47 58 47 54 41 43 57 53 48 62 49 40 46 47 54 52 52 51 52 67 58
86 85 83 83 83 81 81 77 75 58 77 78 75 62 73 74 75 70 47 69 66 49 47 70 58 39 51 64 50 58 56 54 52 54 68 68 56 67 62 56 62 68 70 65 54 65 68
Wind_Direction
340 308 310 329 332 336 345 360 347 349 346 352 350 360 3 7 6 4 1 21 23 47 51 53 56 57 169 137 155 166 179 187 190 205 206 209 212 212 214 217 221 220 223 229 232 230 231
358 352 305 347 350 316 349 346 353 351 344 352 353 357 7 9 10 8 7 7 25 33 44 47 51 37 77 131 144 159 216 211 203 213 211 208 209 209 216 219 217 220 220 225 231 230 234
295 306 308 340 313 346 352 354 342 345 347 356 353 0 11 13 16 13 10 8 12 25 28 34 37 57 39 145 218 141 152 199 155 198 200 206 207 209 216 214 222 219 220 222 231 228 229
334 295 303 311 318 339 340 346 351 360 357 360 1 4 9 17 20 17 18 19 17 23 30 37 27 39 49 85 150 155 168 177 161 195 198 207 207 213 208 212 220 221 220 224 224 227 234
299 301 305 308 314 353 350 345 357 12 352 351 11 8 11 18 20 23 23 22 24 21 31 35 23 40 31 66 166 183 167 200 190 177 199 204 205 209 210 219 217 221 222 227 229 230 230
303 343 304 303 306 316 331 356 351 360 356 353 1 9 15 19 21 25 28 19 23 22 17 31 28 47 49 56 94 176 183 176 203 198 216 203 207 206 206 212 218 219 223 228 226 229 232
317 317 356 349 308 315 330 351 356 351 355 354 360 10 17 19 23 24 29 29 26 28 31 29 41 40 51 61 75 144 180 184 194 182 183 196 205 199 206 209 213 226 223 225 226 227 230
355 2 335 322 348 349 333 346 349 351 0 358 359 8 14 21 21 24 28 34 30 26 24 32 72 77 61 64 72 95 128 183 213 205 185 207 194 203 206 209 212 220 222 227 230 229 231
318 340 6 348 332 321 351 345 350 350 352 4 2 14 15 18 18 24 29 34 41 28 36 54 59 84 77 64 75 93 113 153 173 214 208 195 209 202 207 210 221 213 217 222 228 231 232
327 339 325 344 338 340 337 345 347 351 351 16 5 2 12 17 21 24 25 33 35 40 36 53 61 65 77 85 70 103 89 133 147 178 220 200 197 221 210 211 216 213 226 229 230 239 238
308 341 325 328 333 340 339 357 343 350 351 357 3 12 17 13 19 25 24 28 33 37 43 45 51 56 68 88 118 106 112 107 176 197 174 172 202 206 212 225 216 219 225 219 228 231 237
305 321 314 330 324 329 341 342 342 349 350 360 360 360 16 30 14 24 28 27 31 34 39 48 49 51 58 69 79 96 123 127 219 228 182 184 180 202 212 213 215 217 223 227 230 235 241
303 317 313 313 320 5 323 329 336 351 351 359 1 1 6 26 30 23 27 27 34 31 35 43 43 55 50 55 63 96 86 109 140 226 242 198 206 220 217 211 214 218 223 226 232 237 239
308 309 309 316 318 337 349 320 326 334 353 347 353 359 2 5 22 34 29 24 32 33 32 30 47 51 52 59 52 57 67 206 183 230 152 174 212 214 209 225 216 220 220 224 230 232 238
296 298 306 316 309 316 319 356 325 331 332 357 352 358 12 352 0 41 19 20 27 30 32 31 30 42 51 56 59 63 55 59 68 93 122 153 167 219 193 237 215 220 223 226 227 232 234
288 293 298 291 318 308 313 323 317 321 326 333 339 352 348 5 355 357 7 13 21 32 30 32 34 36 39 48 55 58 64 64 57 62 66 110 200 216 233 234 241 218 223 227 228 231 239
285 289 293 294 300 307 304 310 334 318 321 324 327 331 344 342 350 353 351 17 19 23 32 29 32 40 37 34 46 49 59 63 135 66 109 71 128 174 225 212 217 221 243 231 234 245 241
276 284 284 294 285 299 301 301 307 315 329 316 319 324 332 338 344 349 355 347 8 19 19 25 33 41 30 46 38 35 52 59 63 68 202 215 69 202 192 208 246 225 252 239 222 219 224
279 281 284 287 288 291 295 298 300 305 312 315 321 316 326 333 336 339 344 349 356 335 2 4 32 10 17 26 46 38 39 35 46 53 68 72 83 95 102 237 220 223 220 241 238 258 248
272 277 281 280 282 287 290 293 293 297 297 303 307 312 317 317 321 325 330 323 340 341 323 351 359 4 3 14 22 63 56 52 47 41 41 64 63 48 80 103 113 128 155 165 164 192 224
266 267 270 274 280 281 284 286 286 288 290 296 299 302 311 307 315 315 320 323 329 331 328 340 288 352 357 344 29 4 358 56 45 28 333 53 28 40 40 122 139 183 228 176 204 201 219
267 264 267 269 272 277 281 281 285 290 285 287 293 295 293 300 307 305 310 315 315 313 320 324 329 329 315 264 334 317 355 326 350 333 349 329 327 303 133 284 301 292 297 256 213 230 208
263 264 265 266 271 277 276 275 278 278 280 289 286 290 294 288 291 298 302 304 305 305 304 311 315 318 319 308 310 300 267 316 271 280 298 299 268 271 246 254 263 269 263 256 284 260 263
265 261 265 269 270 274 271 273 263 275 272 273 290 276 283 288 290 298 299 299 294 306 302 306 304 306 300 305 297 315 307 303 295 246 257 273 255 251 254 260 241 252 253 257 260 263 266
254 257 263 261 266 263 265 276 270 269 270 271 271 274 273 276 278 280 283 285 290 292 294 293 296 298 298 299 303 306 292 289 301 264 272 266 300 262 290 292 309 263 252 284 272 261 273
254 264 261 263 266 263 262 264 263 279 269 267 270 281 272 272 273 277 278 288 285 291 289 287 290 285 289 296 296 289 264 294 261 298 284 293 274 280 300 269 292 274 290 281 283 280 270
259 263 262 260 265 257 257 263 267 265 267 271 266 267 267 268 274 274 271 275 288 287 279 279 292 288 275 287 268 300 294 295 287 278 281 281 283 270 273 287 283 283 285 296 277 289 289
253 256 256 257 260 260 256 266 257 258 278 264 270 264 282 278 269 270 277 273 268 276 268 271 266 283 288 277 285 284 288 270 286 293 290 286 292 265 273 289 271 288 291 273 285 290 285
251 254 258 255 259 256 264 256 257 269 259 260 265 273 271 267 269 265 279 268 271 286 288 273 275 275 266 284 287 291 286 292 279 284 289 285 292 286 288 284 290 292 290 272 282 287 288